Theta_e
288 288 288 290 289 289 290 289 289 288 288 289 287 287 286 282 276 281 288 289 285 286 289 290 291 291 291 291 291 291 291 291 291 291 290 290 290 290 290 289 289 289 290 290 291 291 292 293 293 294 294 295 296 297 298 299 300 301 302 301 302 302 303 303 304 306 308 310 314 319 320 319 319 319 319 319 319 319 319 318 318 318 318 318 317 316 314
288 288 288 289 289 288 289 289 289 289 289 288 289 288 288 288 287 290 289 286 285 288 289 290 291 292 291 291 292 291 290 289 290 290 289 289 289 289 289 289 289 289 290 290 290 291 291 292 292 293 293 294 295 295 296 298 299 300 301 301 301 301 301 302 303 304 306 308 310 315 319 318 318 318 319 318 318 318 318 317 316 316 315 315 316 314 312
286 288 288 288 288 288 286 288 289 289 289 289 289 288 288 289 287 287 286 285 284 289 291 290 292 292 292 291 290 290 290 290 289 289 289 289 289 288 288 289 289 289 290 290 290 290 291 291 292 292 293 293 294 294 295 296 297 299 300 300 300 300 300 301 302 304 305 306 308 310 315 318 317 317 318 318 317 316 316 314 314 314 314 313 313 312 311
284 287 285 286 287 287 286 285 286 287 287 285 286 286 289 287 285 286 285 283 282 287 291 291 291 290 289 288 289 289 290 290 290 289 289 289 288 289 289 289 289 289 289 289 290 290 290 291 292 292 292 293 294 293 294 295 296 298 298 299 299 300 300 301 301 302 304 305 306 308 309 312 317 317 316 316 315 314 312 312 312 311 311 311 309 308 308
283 286 285 283 281 282 283 283 286 288 288 288 288 288 289 289 289 286 284 284 287 288 290 288 288 288 288 288 289 289 290 290 290 290 289 290 290 289 289 289 289 289 289 289 289 290 290 291 291 292 293 293 293 293 294 295 296 297 297 297 298 298 299 300 300 301 302 304 304 306 306 308 313 316 315 315 313 312 311 310 309 308 305 305 303 303 304
283 285 285 284 279 273 277 288 290 291 287 287 285 284 286 288 289 286 288 287 289 289 288 287 286 287 287 288 290 291 291 290 290 290 290 290 290 290 290 290 289 289 289 290 290 290 290 291 292 292 294 294 294 294 295 295 295 296 296 296 297 297 298 299 300 300 301 303 303 304 305 306 309 313 314 311 308 307 306 306 304 302 300 299 300 300 300
282 284 281 279 274 275 286 291 291 291 290 289 287 288 288 288 289 289 288 288 288 289 289 288 288 288 289 290 290 290 291 291 290 290 290 291 291 291 291 290 290 289 289 289 290 290 291 292 292 291 292 293 293 294 294 294 294 295 295 295 296 296 297 298 299 300 300 301 302 303 303 304 304 305 304 304 303 301 301 300 299 298 297 297 297 298 298
280 279 276 274 273 284 289 290 290 292 290 288 288 286 288 289 289 289 287 288 288 288 288 288 289 289 289 290 291 292 293 293 291 291 290 291 291 291 292 291 290 290 290 289 289 290 292 291 291 291 291 292 293 293 294 294 294 294 294 294 295 295 296 297 298 299 299 300 301 301 301 301 301 301 301 300 300 300 299 298 297 297 296 296 295 295 296
281 280 280 278 284 284 286 286 287 288 284 283 282 280 284 289 290 288 287 288 288 288 288 288 289 289 289 287 288 291 292 293 293 292 292 292 292 292 293 292 291 292 292 292 291 291 290 291 291 290 291 292 292 292 293 293 293 294 294 294 294 295 295 296 297 298 299 299 300 300 300 299 298 298 298 298 298 299 297 297 296 296 296 296 296 296 296
280 280 278 279 278 276 282 286 291 292 292 290 289 286 282 289 290 290 289 287 287 287 288 287 288 289 286 283 284 289 292 293 293 294 294 294 294 294 293 293 293 292 292 292 292 291 290 291 291 290 291 291 291 291 292 292 292 293 293 293 294 295 295 296 297 298 299 299 299 299 299 298 298 298 298 298 298 298 296 296 295 296 297 297 297 297 297
277 275 276 276 275 278 284 286 289 292 291 290 287 282 280 287 289 291 290 288 288 287 287 287 288 287 282 282 284 289 291 292 293 293 293 293 293 293 293 292 291 291 290 291 292 291 290 290 291 291 290 291 292 291 291 291 291 292 292 293 293 294 294 295 296 297 298 299 299 299 299 298 298 297 297 297 298 298 298 297 297 297 297 296 296 297 297
270 273 274 275 278 279 284 288 290 291 292 289 286 276 278 285 287 289 290 288 288 288 288 289 287 286 282 282 285 290 291 292 293 293 292 293 293 293 293 293 292 292 292 291 290 290 290 290 291 291 291 291 292 291 291 291 291 291 291 292 293 294 295 295 296 297 298 298 299 299 298 299 299 298 299 298 298 297 297 297 297 297 297 296 295 295 296
274 276 275 277 279 286 289 289 291 292 293 290 279 275 281 286 287 287 290 290 290 290 289 289 284 284 286 287 290 291 292 292 292 293 294 293 294 293 293 293 295 293 292 292 291 291 291 291 291 291 291 291 291 291 291 290 290 291 291 292 293 294 294 294 295 296 297 298 298 299 299 299 299 299 299 298 298 298 297 297 297 296 296 296 296 295 295
272 273 275 275 278 285 289 290 292 293 288 279 278 284 288 287 286 287 289 288 288 289 288 286 286 286 288 290 290 291 291 291 291 292 293 293 294 294 295 295 294 294 293 293 292 292 292 291 291 291 291 291 291 291 291 291 291 291 291 292 292 293 293 293 294 295 296 297 298 298 299 299 298 298 299 299 299 298 298 297 296 296 296 296 295 295 295
271 266 272 272 272 280 288 289 290 289 283 281 285 286 287 288 287 287 287 288 288 288 287 288 288 287 287 288 290 290 291 291 291 292 292 292 292 292 293 293 294 293 292 292 292 292 293 293 292 292 292 293 292 292 291 291 291 291 291 291 292 292 293 292 293 294 295 295 296 297 298 299 298 298 299 299 299 299 298 297 296 295 295 295 295 295 294
274 267 268 272 280 284 289 288 283 285 287 288 288 288 285 288 288 287 287 288 289 289 289 288 288 289 289 289 290 291 291 291 291 292 292 292 293 293 293 293 293 292 292 293 292 292 293 293 292 292 291 292 293 292 291 292 291 292 291 291 291 292 292 292 292 292 293 294 295 295 296 297 298 298 298 298 298 298 298 297 295 294 294 294 294 294 293
273 273 277 284 287 288 289 289 287 288 288 289 289 288 288 287 287 289 288 288 289 290 290 289 289 288 289 289 290 290 290 290 291 291 292 292 291 291 291 292 293 293 292 291 291 291 292 292 291 291 291 290 291 290 291 292 291 291 291 291 291 291 292 291 291 291 292 292 292 293 294 295 295 295 296 297 296 297 297 296 295 294 294 294 293 293 293
287 288 288 289 288 288 289 290 291 289 289 289 288 287 286 287 289 290 289 290 290 290 291 289 289 289 289 289 289 289 289 290 290 291 291 292 292 292 293 293 293 292 291 290 290 290 290 291 290 291 290 290 290 290 291 292 291 291 291 291 291 290 291 291 291 291 290 291 291 291 292 293 294 294 294 295 295 296 296 296 295 295 294 293 293 293 292
282 278 287 286 286 288 289 289 290 291 291 289 289 288 288 289 290 291 291 291 291 290 291 290 289 289 289 289 289 290 289 289 290 290 290 291 291 291 291 291 291 290 289 288 288 288 289 289 288 289 289 291 291 290 291 291 290 290 291 290 290 289 289 290 290 290 290 290 290 290 290 290 291 293 293 293 292 292 294 295 295 294 294 293 293 293 292
282 281 286 287 289 289 290 289 287 287 288 289 289 288 289 289 290 290 291 291 290 290 289 289 288 288 288 288 287 287 288 288 288 288 288 287 288 288 287 287 288 286 287 287 287 288 288 288 287 287 287 288 289 289 291 291 290 289 289 289 289 288 288 289 290 290 290 288 288 288 289 289 289 289 291 292 291 290 289 290 294 294 293 293 293 293 292
285 287 287 288 289 288 289 290 289 290 289 288 288 288 288 288 288 288 289 288 287 286 286 287 287 287 287 287 286 285 283 283 283 284 285 284 284 285 286 286 285 283 284 285 285 286 287 286 286 286 286 287 288 288 290 290 289 289 289 288 288 288 288 288 288 289 289 289 289 289 288 289 288 288 288 289 291 291 291 290 291 293 294 293 293 293 293
280 281 283 287 282 281 285 287 289 289 288 288 287 287 288 288 287 287 287 286 285 286 285 285 283 285 284 284 284 285 283 283 283 283 284 284 284 285 284 284 282 282 284 284 284 286 286 286 286 287 287 287 288 288 289 289 288 289 289 289 288 287 288 287 288 288 288 288 289 289 289 288 288 289 287 288 288 290 290 289 289 289 289 291 292 293 292
279 284 287 287 286 287 287 287 288 289 289 289 288 288 287 288 288 287 287 286 285 285 285 283 284 281 283 284 282 284 283 283 283 283 283 283 284 284 284 283 283 282 283 285 284 286 286 286 287 287 287 287 288 288 288 288 287 287 287 289 288 287 288 288 287 287 287 286 287 288 289 289 289 288 289 290 288 288 289 289 289 288 288 288 288 288 291
285 288 287 286 287 285 286 287 287 288 288 289 288 288 288 288 288 287 287 286 287 284 284 284 284 283 282 281 282 284 283 282 282 283 282 282 282 283 283 283 283 283 284 284 284 284 284 285 285 286 286 287 287 288 288 288 287 286 286 287 286 286 287 287 288 287 285 285 286 287 287 287 287 288 287 288 289 289 288 288 289 288 288 288 288 288 288
285 287 286 286 286 287 287 287 287 287 288 289 288 288 287 286 284 284 285 284 283 284 284 285 284 284 283 283 282 282 283 282 283 284 284 285 283 284 283 282 283 283 283 282 282 282 283 284 285 286 286 287 287 288 288 287 287 286 286 286 286 286 286 287 287 287 286 285 285 286 287 286 287 287 287 286 286 287 289 288 289 288 288 288 288 288 288
287 286 287 288 287 287 286 287 287 286 287 288 287 287 289 291 287 287 284 284 284 284 283 284 284 284 285 284 283 282 282 283 284 285 283 284 284 283 283 283 283 283 282 281 282 283 283 284 284 284 286 287 287 287 287 287 286 285 285 285 284 285 286 286 286 286 286 285 284 285 287 287 287 287 287 288 287 286 286 287 288 288 288 288 288 288 288
288 289 289 287 286 285 286 286 285 286 285 285 286 285 285 287 291 287 285 285 285 284 285 285 285 284 284 284 285 284 285 283 283 283 282 283 283 282 283 282 281 281 282 282 282 283 283 284 284 284 286 287 287 287 287 286 286 286 286 286 285 285 284 286 285 284 283 284 284 285 287 288 288 288 288 288 287 287 287 286 286 286 286 287 288 288 287
287 287 287 285 284 285 286 285 285 286 285 286 285 286 285 285 286 286 287 287 287 285 284 284 285 284 285 283 284 284 282 282 283 282 282 282 281 280 281 281 281 280 281 281 282 282 282 282 283 284 286 287 287 286 287 286 286 286 285 285 285 285 286 285 285 284 284 284 284 284 286 287 288 287 288 288 288 288 288 287 286 285 286 286 287 288 288
287 287 286 286 286 285 285 285 287 287 286 286 286 284 286 287 286 286 285 285 285 285 286 286 285 284 285 282 282 282 281 281 282 282 282 282 281 280 280 280 280 280 281 281 282 282 282 282 283 285 287 287 286 286 286 286 286 286 285 285 285 286 286 285 284 284 284 284 284 284 283 285 286 287 287 288 288 288 288 286 286 285 285 286 287 288 288
287 286 287 286 287 287 287 285 286 286 286 285 286 286 285 286 286 285 283 284 284 285 287 285 284 283 282 281 281 282 283 283 283 282 281 280 280 280 280 280 281 281 282 283 283 282 282 282 282 284 286 286 286 285 285 285 285 285 286 286 285 285 286 286 286 285 284 284 284 282 283 284 286 286 286 287 287 286 285 285 285 284 285 285 285 285 286
284 285 285 285 285 285 287 284 283 284 285 285 285 285 285 285 285 284 285 284 282 284 285 284 284 282 281 283 282 281 282 282 282 281 281 280 280 280 279 280 282 282 281 282 282 281 281 281 282 284 286 285 285 285 284 284 285 285 285 285 285 285 285 285 284 285 284 284 283 284 284 284 285 286 285 284 285 285 285 285 285 284 283 285 285 285 286
284 283 284 284 284 284 284 282 283 283 284 284 285 285 285 285 285 285 285 284 284 283 282 282 282 283 284 281 281 282 282 282 282 282 280 279 278 277 277 279 281 281 281 281 281 281 281 281 283 286 286 285 285 285 284 284 284 285 287 286 286 287 285 285 286 286 284 283 283 284 284 284 285 284 285 284 284 284 284 284 284 284 284 285 286 286 286
283 282 281 280 282 282 282 281 283 282 282 284 286 288 286 285 285 285 285 283 282 281 281 281 282 282 281 281 281 282 281 279 278 278 278 276 277 276 276 278 279 280 281 281 282 281 281 282 285 285 284 285 285 286 285 284 285 285 285 285 285 286 286 286 286 287 285 284 284 283 283 283 283 283 283 282 283 282 283 283 284 285 286 285 286 286 286
285 284 284 284 285 284 283 283 282 282 282 283 284 284 284 285 285 283 282 282 282 282 282 283 281 281 281 282 281 279 278 281 281 279 277 276 277 276 278 278 279 280 281 281 281 281 281 282 282 283 284 284 285 286 286 285 284 284 285 284 285 286 286 286 287 287 286 284 284 284 283 283 284 283 282 282 282 282 282 283 283 284 285 286 286 286 286
288 286 286 285 284 286 286 286 283 283 283 283 282 282 283 283 283 283 282 283 284 284 283 282 281 281 279 278 277 276 277 280 279 277 276 275 275 274 277 279 281 281 282 283 282 282 282 282 282 283 283 284 284 284 285 285 285 284 284 285 285 285 286 287 287 287 285 285 285 285 284 284 283 282 282 283 283 282 281 283 285 285 286 286 286 286 286
285 284 284 283 282 284 285 284 285 284 285 285 284 284 284 283 282 283 283 283 283 283 282 282 281 280 277 277 275 275 276 277 275 273 273 273 272 272 277 281 281 282 281 283 284 282 281 281 281 282 283 284 285 284 284 284 284 285 284 284 285 285 286 286 286 285 284 285 285 284 284 284 284 283 283 283 283 283 283 284 286 286 286 286 286 286 286
285 287 286 284 283 284 284 284 285 284 284 284 284 284 284 282 284 284 284 283 283 283 283 282 281 280 281 279 278 276 274 275 276 275 275 271 271 275 279 281 281 282 281 282 283 281 281 281 282 283 284 284 284 284 284 282 284 284 284 285 285 285 286 287 286 283 284 284 285 284 283 285 285 285 283 284 283 282 283 285 285 286 286 286 286 285 285
284 285 285 284 284 284 284 284 284 285 284 283 283 283 285 285 283 283 284 283 283 283 283 283 284 283 281 278 276 275 276 273 273 274 271 271 273 280 281 282 282 282 282 282 281 281 282 282 282 283 284 284 285 284 284 282 282 284 285 285 285 285 285 286 286 285 283 284 284 285 285 285 286 286 285 283 283 283 283 285 286 286 286 286 286 285 284
283 283 283 282 283 283 282 282 282 283 286 286 285 283 283 283 283 283 283 283 282 282 283 282 282 282 281 281 281 281 280 277 275 274 273 274 277 281 283 283 283 284 285 283 282 283 283 282 282 284 284 284 284 284 282 280 280 283 284 285 285 285 284 285 285 285 285 284 284 286 286 286 286 286 285 284 283 282 283 285 286 286 286 287 287 286 286
284 284 284 284 284 283 284 283 283 284 284 286 286 286 284 284 283 284 284 285 283 282 283 282 283 283 282 282 282 282 284 283 280 276 277 278 279 280 281 284 285 284 284 283 284 283 282 282 282 283 284 284 284 283 282 280 280 282 283 283 283 284 284 284 284 285 285 285 285 284 285 286 286 285 285 284 284 283 283 284 285 286 286 286 287 286 286
285 284 283 284 284 283 284 284 283 283 284 285 285 286 285 286 284 284 284 285 284 283 283 284 284 283 283 283 283 284 283 282 282 281 280 280 282 282 283 285 284 282 282 282 282 282 282 282 283 284 284 284 285 281 282 279 281 282 282 282 283 284 283 283 284 284 285 285 286 286 286 286 285 285 285 285 285 284 283 284 285 285 286 286 287 287 286
284 283 283 284 284 284 283 283 283 284 284 284 284 284 285 284 286 288 287 284 283 283 283 283 284 285 284 283 282 282 282 282 282 281 281 284 286 282 282 283 283 283 282 282 282 283 283 282 282 282 284 284 284 283 281 281 282 282 282 282 283 282 283 283 283 283 284 284 286 286 286 285 285 284 284 285 285 285 284 284 284 285 286 286 287 288 287
283 284 284 285 284 283 284 284 286 286 284 284 284 284 284 284 285 286 284 283 284 284 283 283 283 283 283 283 283 284 284 282 283 282 282 282 283 283 286 286 284 283 283 282 282 283 281 281 281 282 282 283 283 284 283 281 281 282 283 282 282 282 283 282 283 282 282 283 283 284 284 284 284 284 284 285 286 286 285 285 285 285 285 286 287 288 287
284 285 285 285 285 284 284 284 283 284 285 285 284 283 284 284 284 285 284 284 284 283 284 284 284 284 283 282 283 284 284 283 284 282 284 285 286 284 284 285 285 284 284 283 282 281 281 281 282 282 282 282 283 283 283 282 282 282 283 282 282 282 282 283 283 283 282 283 283 284 284 284 284 284 285 284 285 286 285 284 285 285 285 285 286 287 288
285 285 285 286 284 284 284 284 285 287 286 284 284 284 284 284 284 284 284 283 284 284 283 283 283 283 283 282 284 286 285 285 286 283 285 285 284 285 282 282 283 283 284 283 283 282 281 282 282 282 282 283 283 284 284 282 282 282 282 281 281 281 282 282 282 283 283 283 283 284 284 284 284 284 284 284 284 285 286 286 286 285 285 285 286 286 287
284 285 284 283 284 285 286 287 285 284 284 285 285 284 283 283 284 283 284 285 285 285 285 284 284 283 283 284 283 283 284 283 282 284 286 287 287 286 282 283 282 282 282 282 282 281 281 282 282 283 283 283 283 284 283 282 282 281 281 281 281 281 282 282 282 283 283 283 283 284 284 285 284 284 284 284 285 285 285 284 285 285 285 286 287 287 288
285 284 284 285 285 284 283 282 283 284 284 284 285 286 285 283 283 283 284 284 285 285 283 283 284 284 284 285 285 286 287 287 285 283 284 285 284 284 284 283 283 281 281 282 281 281 281 282 282 282 283 282 282 283 282 282 281 281 281 281 281 281 281 282 282 283 283 283 282 283 283 284 284 284 284 283 284 284 285 285 285 285 284 285 286 286 286
285 285 284 283 284 283 283 284 285 284 285 286 286 285 283 283 284 284 283 284 284 284 284 283 283 283 283 283 284 284 284 286 286 284 282 282 282 282 283 284 283 282 281 281 282 282 283 283 282 282 282 281 282 282 281 281 281 281 282 282 282 282 282 281 282 284 284 282 283 283 283 283 284 284 284 284 284 285 285 286 286 285 284 284 286 286 287
286 286 284 283 284 283 285 285 285 284 285 284 283 283 283 283 283 283 284 284 285 285 286 286 287 286 285 283 283 283 283 282 286 287 285 283 283 283 283 282 282 282 282 282 282 281 281 282 282 282 281 281 282 282 281 281 282 281 281 281 282 281 281 281 282 283 282 283 283 284 284 284 284 283 284 283 284 284 284 285 286 285 284 284 285 286 286
284 284 284 283 284 284 284 284 283 285 285 283 285 283 282 284 285 284 283 282 283 283 283 284 284 284 283 282 282 282 282 282 282 282 283 282 282 282 282 282 281 282 282 282 282 282 281 282 282 282 281 282 282 281 281 281 281 281 282 281 281 281 280 280 281 282 283 283 283 283 284 284 283 282 282 283 284 284 284 285 285 284 283 284 284 285 286
284 285 284 285 286 286 286 287 287 286 284 285 284 282 283 285 285 284 283 283 282 284 285 284 284 283 283 283 283 282 282 282 282 283 283 282 281 282 282 282 281 281 281 281 282 282 281 281 280 280 281 282 281 281 280 281 281 281 280 280 281 280 280 281 282 282 282 282 282 282 282 282 282 282 281 281 282 283 283 283 284 284 284 285 285 285 286
287 286 286 286 285 285 286 286 284 285 285 284 283 283 285 284 285 284 282 283 284 286 284 285 286 285 285 283 284 283 282 282 283 283 283 282 282 283 281 282 283 282 282 282 281 282 281 281 280 281 281 281 280 280 280 280 280 280 281 280 280 280 280 281 281 281 281 281 281 281 281 281 281 281 281 281 280 281 281 281 281 283 283 284 284 284 284
Wind_Speed
10 8 7 9 12 12 10 11 9 11 8 9 8 3 3 1 2 8 11 11 10 8 8 8 7 7 8 8 7 6 5 6 7 7 8 9 9 8 8 8 7 8 9 9 10 11 11 11 13 13 12 12 12 11 11 11 11 13 13 13 13 14 13 13 12 12 12 12 11 10 5 3 3 3 3 4 4 5 7 6 4 2 2 5 6 5 4
12 10 8 5 14 9 12 12 13 10 12 11 12 10 6 6 6 12 16 13 11 7 7 9 9 8 8 7 5 5 7 8 8 8 7 8 7 7 8 8 8 7 8 9 10 11 12 12 13 13 12 13 13 13 12 12 12 12 12 13 14 13 14 13 13 13 13 12 12 12 9 5 4 3 4 5 5 6 6 4 2 2 3 4 6 6 6
8 9 7 9 10 13 14 12 10 11 11 13 12 11 12 15 13 13 13 13 10 5 8 10 9 8 7 7 8 8 7 7 7 7 7 6 6 6 7 8 9 9 9 9 10 11 11 12 12 11 11 11 11 12 12 12 11 11 10 11 11 13 14 14 13 13 12 12 12 11 11 8 5 4 4 4 4 4 3 2 2 2 3 5 5 6 6
4 3 6 9 12 14 14 12 11 9 7 7 6 4 4 2 10 11 12 8 6 6 9 9 8 8 9 9 8 7 6 7 6 6 6 6 6 7 7 8 8 9 10 10 10 10 11 11 11 10 10 10 10 11 11 11 11 9 10 11 11 11 12 13 14 13 12 11 10 10 9 11 8 5 3 3 2 2 3 2 2 2 2 2 4 5 5
2 4 1 2 2 5 7 6 5 7 7 7 7 8 9 6 7 12 8 5 6 9 9 10 9 10 10 9 7 6 6 6 7 7 7 7 7 6 7 7 8 8 8 8 8 9 9 9 10 10 9 10 11 10 11 10 10 11 11 11 11 12 12 12 13 13 12 12 12 10 10 8 9 7 3 3 2 2 2 2 4 4 3 3 3 4 5
5 4 2 2 3 2 1 2 4 2 2 6 10 5 7 7 4 2 4 10 10 9 8 10 10 10 9 7 7 5 4 4 6 7 7 6 5 5 6 6 7 7 7 7 8 7 7 8 8 8 7 8 9 9 9 9 10 10 11 11 11 12 13 13 12 12 12 12 10 11 10 9 9 9 6 3 4 3 3 4 5 6 6 6 4 4 5
7 2 1 4 2 1 3 3 5 9 9 13 14 11 10 9 11 14 14 11 10 9 9 10 11 11 10 9 9 7 6 5 5 6 6 6 6 7 7 8 7 6 5 6 8 8 8 7 7 8 9 9 8 9 10 11 11 11 11 11 12 12 13 14 13 13 13 12 12 12 11 10 10 10 8 9 9 8 7 5 5 6 6 6 5 4 5
3 3 2 3 3 1 3 3 4 2 3 3 9 11 10 7 7 8 11 11 11 12 11 10 9 11 10 9 9 8 7 6 5 6 6 6 6 7 6 6 6 5 6 6 5 6 5 7 8 7 8 8 8 9 8 10 10 11 11 12 13 13 13 14 14 13 12 12 12 12 12 11 11 9 9 10 9 8 7 7 6 5 6 7 6 6 6
5 4 4 5 4 4 3 2 0 1 1 0 2 5 3 4 4 7 10 10 10 11 9 9 8 8 8 9 7 7 7 6 5 5 5 5 6 5 6 5 5 5 6 6 6 5 6 6 7 8 7 7 8 8 10 10 10 11 11 12 13 13 13 13 13 13 13 12 12 13 12 12 11 11 11 11 10 8 9 8 8 8 6 7 6 6 7
3 7 5 4 1 3 4 1 3 1 2 3 1 4 3 3 5 7 11 12 11 10 9 9 9 5 7 7 4 5 5 5 4 4 5 5 5 6 6 7 7 8 7 7 6 6 7 8 7 6 6 7 7 9 9 10 10 11 12 13 12 12 12 12 12 12 12 13 12 12 11 11 10 9 9 9 10 8 9 9 9 8 7 6 8 8 9
4 3 5 3 4 1 2 4 2 1 1 2 2 4 2 1 1 6 9 11 10 11 10 9 5 2 3 3 2 1 3 3 2 4 5 5 4 5 5 5 7 7 7 5 6 7 8 9 9 7 7 7 8 9 9 9 9 10 11 11 11 11 11 11 11 11 11 12 12 12 11 10 9 9 9 9 8 9 9 9 9 8 8 6 6 9 9
1 4 4 3 1 2 2 2 2 3 0 2 1 0 2 5 1 2 8 10 11 9 6 5 2 3 5 6 4 2 1 1 2 4 5 6 6 7 6 6 5 4 5 7 8 8 8 8 7 8 6 7 8 8 9 8 9 9 9 8 8 9 10 11 10 11 10 12 12 12 11 11 10 9 7 8 9 10 10 9 9 9 9 8 7 9 10
5 6 1 2 2 1 0 1 2 4 1 1 1 2 3 5 3 1 4 7 7 7 6 3 3 2 0 6 6 3 1 1 4 3 3 2 3 4 6 6 7 7 7 6 7 6 6 7 7 7 6 6 8 8 8 9 10 9 7 6 7 8 9 10 11 11 11 11 12 12 11 9 9 9 8 8 9 10 10 10 9 10 10 9 8 8 12
3 1 5 3 2 1 1 1 2 2 1 2 3 2 2 6 4 2 3 6 4 5 5 5 5 5 5 6 3 3 2 3 2 3 3 5 6 6 6 6 7 8 8 9 10 10 8 8 7 7 7 7 7 7 8 10 9 8 7 6 6 7 9 9 10 10 11 11 10 10 10 10 10 10 9 9 8 8 9 10 11 10 9 9 7 7 12
2 3 4 1 1 1 2 3 1 2 1 1 4 7 5 4 5 6 4 5 6 9 8 8 9 7 5 5 4 3 3 3 3 4 5 6 6 6 7 8 8 7 8 9 9 8 7 7 7 7 7 8 8 8 10 9 8 7 7 6 5 6 8 9 9 9 10 11 10 9 10 10 10 10 9 10 10 9 9 9 11 11 10 8 6 6 11
4 2 3 2 0 2 2 0 2 1 1 6 8 7 7 5 5 6 6 5 6 10 12 10 7 6 6 3 3 4 2 2 3 4 4 4 5 6 6 4 5 6 7 7 7 7 7 7 7 6 7 8 8 9 10 8 8 7 7 6 6 7 7 7 8 8 8 9 9 9 10 9 9 10 9 8 9 9 9 9 8 9 8 6 5 7 11
2 3 2 1 1 2 3 2 3 4 5 6 5 5 7 8 5 5 7 7 7 10 11 10 8 6 4 4 2 3 1 1 2 3 4 4 4 5 5 6 6 5 6 7 7 9 7 8 7 6 5 7 8 9 8 7 8 8 7 6 7 7 7 7 7 7 7 8 8 9 8 9 9 9 9 8 9 8 8 8 8 8 7 6 6 5 9
8 8 6 4 4 5 7 6 5 8 7 5 5 7 8 3 6 5 8 8 8 8 7 9 5 5 5 5 2 2 2 2 2 3 4 5 5 6 6 8 10 7 7 7 8 9 9 8 8 7 6 5 7 7 7 7 7 7 7 8 8 7 7 6 6 7 8 8 8 8 8 7 7 7 7 7 7 7 7 7 6 7 7 7 7 8 9
1 4 2 5 6 6 8 7 6 6 6 4 4 5 6 7 7 8 7 7 7 6 5 6 7 6 4 5 3 2 1 2 2 3 4 5 5 5 7 7 6 7 6 7 8 8 8 8 7 7 6 5 4 5 6 6 6 6 7 8 7 7 7 7 6 7 7 7 7 8 8 7 7 7 7 7 7 7 7 7 7 7 7 7 7 8 9
3 5 6 7 7 7 6 4 5 5 5 6 5 5 6 7 6 6 7 7 6 4 6 5 6 5 3 4 3 1 1 2 3 3 4 5 6 6 4 4 4 5 6 6 7 7 8 9 7 6 5 6 6 6 6 7 6 5 6 6 7 6 7 6 6 6 6 7 7 6 7 7 7 7 7 6 6 7 6 5 5 6 6 7 7 7 7
7 10 8 8 8 8 6 4 3 3 4 7 6 6 7 7 8 6 6 4 4 4 5 5 5 5 3 2 2 1 1 3 3 4 4 4 4 4 6 6 4 4 4 5 5 5 7 7 7 7 5 5 6 6 6 6 6 6 6 5 6 7 6 5 5 5 5 5 5 6 5 6 6 5 5 5 5 5 5 4 3 3 4 5 4 4 4
4 5 7 11 9 6 3 2 3 4 4 6 7 7 7 6 7 6 7 4 4 4 4 5 4 5 3 0 1 0 1 2 4 4 4 4 4 4 3 3 3 5 4 4 5 5 6 6 6 7 7 7 6 6 5 5 5 6 6 7 6 6 6 5 5 5 5 5 5 5 5 5 5 6 6 8 5 4 5 8 11 11 8 5 3 2 3
7 4 10 2 4 9 4 6 3 3 4 6 7 7 7 5 5 6 7 6 4 4 2 1 4 3 3 1 1 0 2 3 2 3 3 4 4 3 4 5 6 5 5 4 5 6 7 6 6 6 6 6 7 8 7 5 5 4 5 6 6 6 6 6 6 5 3 4 5 4 4 4 4 5 5 7 10 11 9 9 11 11 11 9 9 6 4
6 9 7 4 7 8 7 5 5 5 4 5 5 4 4 6 5 4 5 5 7 4 2 1 1 3 2 2 2 2 3 3 3 4 3 3 3 2 1 1 2 3 4 5 5 5 6 5 5 5 7 7 7 6 6 6 5 4 5 5 6 6 5 4 4 5 4 3 3 4 4 5 4 4 4 5 6 8 9 11 12 12 12 12 11 10 8
10 5 4 5 6 7 5 6 4 4 3 5 7 6 5 4 3 3 4 3 3 3 3 0 0 1 1 0 1 2 2 3 3 4 3 1 1 0 1 1 1 2 3 3 3 3 4 5 5 5 6 6 6 7 6 6 5 4 5 5 6 6 6 5 4 4 5 4 3 2 3 4 5 5 4 4 5 5 6 6 9 11 13 12 11 10 9
8 8 9 8 8 6 5 6 5 4 4 3 3 3 3 4 3 3 2 2 1 2 2 1 0 0 3 2 3 3 2 3 3 1 1 1 0 1 2 1 2 2 2 3 3 4 5 5 5 5 6 7 7 7 5 5 3 3 3 3 3 3 4 5 5 5 5 5 4 1 1 3 3 3 3 3 3 3 4 5 5 5 8 12 12 10 11
7 9 14 13 9 5 4 7 6 4 3 4 5 4 3 4 4 3 1 1 1 2 2 2 2 2 1 2 2 2 2 3 1 0 0 0 1 1 1 2 2 2 3 3 4 5 5 4 5 6 6 7 6 6 5 5 4 3 4 3 3 4 6 5 4 4 4 4 4 2 2 3 3 3 2 1 2 2 2 3 4 4 4 6 9 12 9
7 5 4 10 10 8 6 1 4 6 4 4 4 4 4 4 4 3 1 0 1 2 2 3 3 2 2 3 2 1 0 1 3 1 1 3 4 2 2 3 3 2 2 2 4 4 4 4 5 6 6 6 6 6 6 5 4 3 3 3 4 5 5 5 5 5 5 5 4 4 2 1 1 2 0 1 1 2 2 2 3 4 5 5 4 6 10
5 6 4 4 5 5 5 5 7 6 4 3 4 4 4 3 1 1 2 3 1 1 3 2 1 3 3 3 3 4 3 4 4 4 5 5 3 2 2 3 3 2 2 3 4 5 5 5 5 6 7 6 6 7 6 5 5 3 3 2 4 4 4 5 3 3 3 3 4 4 3 2 2 1 2 3 4 5 5 5 5 5 4 4 4 4 6
5 4 6 6 6 6 6 5 5 5 4 4 4 2 2 3 0 2 3 4 2 3 5 3 1 2 2 3 4 5 6 6 7 5 4 4 3 2 3 3 4 3 4 6 6 5 5 4 5 6 7 5 6 6 6 4 3 1 1 1 2 2 1 3 3 2 2 3 2 4 4 2 2 3 3 4 4 4 4 4 4 4 4 4 4 4 4
4 5 7 5 6 5 6 4 4 4 4 3 4 3 1 2 3 3 5 4 2 5 6 4 3 2 3 4 4 4 3 2 2 1 3 3 3 1 2 2 2 3 4 4 5 4 4 3 4 5 6 5 5 5 5 3 1 1 1 1 1 2 3 4 4 3 1 1 2 4 3 3 2 2 2 3 4 4 4 3 3 3 4 3 4 4 4
7 6 7 5 5 4 2 1 3 4 4 4 4 5 6 5 5 7 6 5 6 5 2 2 3 5 5 3 3 4 2 1 1 1 3 3 4 1 1 0 1 4 4 5 5 3 3 2 4 5 5 6 5 5 5 4 1 0 0 1 1 2 5 6 5 6 5 0 2 4 3 2 1 2 1 1 2 3 2 2 3 3 2 3 3 2 3
6 5 4 4 3 2 3 3 5 4 5 6 8 7 5 4 4 4 5 3 1 3 3 3 3 3 2 3 4 3 2 1 0 1 2 4 5 4 1 1 2 3 5 5 4 3 3 2 3 5 5 5 6 5 4 4 1 1 0 2 3 4 3 3 4 4 4 2 2 2 3 3 3 2 1 2 2 2 1 2 2 2 3 3 3 4 4
9 7 9 8 9 8 7 7 5 4 4 3 2 3 4 5 5 5 3 2 1 1 3 4 3 3 3 4 4 3 3 1 1 3 5 5 5 4 3 2 3 4 5 5 5 4 3 4 4 4 3 4 4 4 3 4 3 2 2 3 5 5 5 5 4 4 3 2 2 2 3 3 3 2 2 2 2 1 2 2 1 2 2 2 3 5 6
10 7 7 8 6 7 7 8 8 6 7 6 4 4 4 4 4 4 2 3 5 5 2 3 4 4 4 4 4 3 3 4 5 5 5 5 5 4 4 3 3 3 5 5 4 4 3 3 2 2 3 3 3 3 3 3 3 3 4 5 5 5 5 5 5 5 3 1 2 2 3 3 3 2 2 3 3 2 2 3 1 1 2 1 4 4 4
5 5 4 4 4 5 6 6 7 9 8 8 7 7 6 5 4 3 4 5 2 2 3 4 4 4 4 4 3 3 5 6 5 5 5 5 4 2 3 2 3 4 4 7 5 2 2 2 3 2 2 3 4 3 3 3 3 4 4 4 4 4 4 4 4 4 4 2 1 3 3 3 3 3 3 3 2 3 2 1 0 0 2 2 1 2 2
4 8 7 7 6 6 6 6 7 8 7 6 6 5 5 4 6 5 3 2 3 4 4 5 4 4 5 7 4 2 3 4 4 5 5 2 1 1 1 2 2 2 2 4 4 3 2 2 3 4 3 3 3 3 3 5 4 3 3 4 4 4 5 5 5 3 2 2 2 2 2 2 2 2 2 3 3 2 2 2 3 2 1 1 2 1 3
4 4 6 8 7 7 7 6 5 7 5 3 2 3 7 7 5 5 5 4 4 4 4 5 6 4 2 1 1 4 5 5 5 5 4 4 2 1 3 2 4 1 2 4 2 2 3 3 4 3 2 3 3 4 4 5 4 2 3 3 3 4 5 5 5 4 2 0 1 2 2 2 2 2 2 2 3 3 4 3 0 1 3 3 1 1 2
3 2 2 3 4 5 4 3 3 4 7 9 7 5 3 4 4 3 4 4 3 3 4 3 2 2 2 3 4 4 5 6 5 4 4 2 2 2 5 5 5 5 6 3 1 4 3 3 3 2 2 3 3 3 3 4 4 3 2 2 3 4 4 3 3 4 5 3 2 2 2 3 3 3 3 2 3 3 3 3 4 4 4 3 3 2 2
6 6 6 6 6 5 5 5 5 5 4 5 9 6 5 5 4 4 4 2 2 4 4 4 4 4 3 4 4 5 6 5 3 3 4 2 2 1 4 6 7 6 6 6 5 4 4 4 3 3 4 3 2 3 2 3 2 3 2 2 3 3 4 5 4 5 5 3 4 3 3 3 4 4 3 2 2 3 3 4 4 4 3 2 2 2 3
8 7 5 6 6 5 6 6 5 4 4 5 5 6 5 6 5 4 4 4 3 4 4 5 4 4 4 5 6 7 4 1 2 3 2 3 1 1 1 5 5 2 2 2 2 2 2 3 2 3 6 3 1 1 2 1 2 3 3 2 2 3 5 5 5 5 5 5 4 4 4 4 4 4 3 3 3 3 3 4 4 4 4 4 3 2 3
6 5 5 5 5 5 5 4 4 4 3 4 4 4 5 4 6 7 6 3 3 4 4 4 5 5 4 4 3 2 3 3 2 3 4 4 5 3 1 5 4 3 3 2 2 2 1 2 2 3 5 3 1 1 2 1 0 1 2 3 3 3 4 5 6 6 5 4 4 4 4 4 4 4 4 4 4 3 3 3 3 4 4 3 5 5 4
7 8 7 7 6 5 6 6 7 6 5 4 4 4 4 4 4 1 2 3 3 3 3 3 4 4 3 2 2 3 4 2 1 2 3 6 5 4 5 6 4 3 2 1 1 1 2 3 3 3 2 2 1 1 3 1 1 1 1 3 3 4 5 5 5 5 5 5 4 4 4 4 4 4 5 4 3 3 2 3 4 5 4 5 5 5 4
6 6 7 7 7 6 6 5 4 4 5 5 4 4 4 4 4 4 4 4 3 3 3 3 3 4 4 3 3 3 5 3 4 2 1 5 6 3 5 6 6 5 4 3 2 3 3 2 2 2 3 3 2 3 2 2 2 2 2 3 4 3 4 5 6 5 5 4 4 4 4 4 3 5 5 4 5 4 3 3 4 4 4 4 5 4 2
7 7 8 8 7 6 5 5 7 8 6 3 4 4 4 4 4 4 4 4 4 4 3 3 4 4 3 3 4 5 5 3 3 4 1 2 3 5 1 3 5 5 5 4 4 4 4 3 1 2 2 3 3 2 1 1 2 2 3 4 4 4 4 4 5 6 6 5 4 4 4 5 4 4 4 3 4 4 4 4 5 4 4 4 4 4 4
6 5 5 7 7 7 8 7 4 4 4 4 5 4 4 4 4 4 4 5 5 5 5 5 4 4 4 4 4 2 2 3 3 5 6 5 3 3 1 3 3 3 5 5 4 4 4 2 1 2 2 3 3 1 0 0 1 1 3 4 4 5 5 5 5 6 6 6 5 5 4 4 4 4 4 5 4 4 3 4 4 3 4 4 4 5 5
6 5 6 6 6 4 4 4 4 5 4 4 5 5 4 3 3 4 4 4 3 3 3 3 3 3 3 3 4 2 1 1 3 3 5 5 4 5 6 5 4 4 3 4 5 4 2 1 1 2 3 3 3 1 0 0 0 1 2 4 4 4 4 4 5 5 6 5 5 5 5 4 4 3 3 4 4 4 3 3 3 4 3 4 4 3 4
8 7 6 5 6 4 4 5 5 5 5 8 7 7 4 3 3 1 1 1 1 1 1 2 3 2 2 3 3 2 2 1 1 4 1 3 3 3 3 4 4 4 4 5 4 2 0 2 3 4 5 5 3 2 1 1 0 1 2 4 4 5 5 4 5 5 5 5 5 4 4 4 3 3 4 4 4 3 4 3 3 3 3 3 3 3 4
7 7 5 4 5 6 6 6 5 5 7 5 4 4 4 4 3 2 1 1 1 1 2 1 1 0 0 2 3 4 3 3 3 2 1 0 2 3 4 3 4 4 3 3 3 3 2 3 3 5 6 5 4 3 2 3 2 1 2 4 5 5 4 4 4 4 4 5 5 4 4 4 4 3 3 3 4 3 4 4 5 4 4 4 3 4 4
4 6 6 6 6 6 6 6 6 7 6 5 6 5 4 4 4 2 2 3 3 2 1 1 2 2 1 1 1 2 2 3 3 3 2 1 2 2 3 3 2 2 3 2 3 3 3 4 5 5 5 5 5 3 3 4 4 3 3 4 4 4 5 5 4 3 3 4 5 5 5 5 4 4 4 4 3 3 3 4 4 5 6 4 5 3 3
6 7 7 7 8 8 7 8 9 7 6 7 5 5 5 5 6 5 5 3 2 2 3 3 2 3 3 3 2 2 2 2 2 2 1 1 1 2 2 1 1 2 2 2 3 4 3 3 4 4 5 5 5 4 4 4 4 4 4 3 4 4 4 3 2 3 3 3 3 3 3 3 3 3 2 2 2 3 3 4 4 3 3 4 4 3 3
9 8 8 8 8 7 7 4 3 4 5 6 6 6 7 7 6 5 2 3 6 6 5 4 4 5 4 4 3 3 1 2 2 2 2 1 1 1 1 2 0 1 2 2 3 4 4 5 4 5 5 4 3 3 4 4 5 4 4 4 3 3 3 3 2 2 2 2 1 1 2 2 2 2 3 2 3 4 2 2 2 2 2 2 2 2 3
Wind_Direction
51 41 66 85 76 66 70 57 40 36 17 55 80 65 34 46 138 169 150 130 112 119 116 115 109 103 96 86 83 75 74 66 55 47 43 37 28 12 9 2 357 355 356 353 353 355 357 356 358 355 355 354 356 358 360 358 356 1 356 356 355 352 348 349 345 337 334 332 327 320 281 234 203 204 204 190 209 222 230 228 224 231 148 133 135 138 130
51 36 37 53 94 89 64 54 53 49 56 57 78 81 66 74 80 124 127 110 103 112 116 114 105 98 93 91 89 81 70 67 60 54 49 40 25 13 5 356 354 354 354 355 355 357 359 1 357 358 355 355 354 355 355 354 357 357 359 2 359 356 354 348 344 345 341 338 336 328 320 295 262 220 202 198 200 214 226 222 186 145 134 125 140 148 144
44 42 53 67 77 83 77 55 51 58 63 64 61 80 86 84 71 89 100 105 102 85 102 104 101 95 99 90 77 67 58 58 64 63 54 37 22 12 6 358 358 358 357 357 357 359 359 358 357 356 353 348 349 352 349 352 354 353 355 356 358 1 357 351 347 348 348 344 343 344 335 315 297 265 233 209 202 211 222 209 167 157 141 147 144 141 148
65 19 79 93 91 81 71 50 35 24 21 47 14 44 340 126 132 116 106 101 119 123 108 102 98 98 89 83 73 62 48 41 46 51 42 33 22 19 11 5 3 1 359 357 359 357 354 355 354 357 350 346 350 349 345 348 347 348 1 2 2 2 358 353 353 352 349 339 338 342 346 340 318 284 274 244 216 192 173 146 98 88 110 124 125 126 128
96 182 232 31 12 64 50 25 24 47 68 83 69 36 32 58 138 135 149 133 125 131 125 113 103 97 90 80 62 59 51 42 42 40 35 31 27 21 13 12 9 2 359 354 353 353 355 354 353 350 346 349 351 344 344 342 343 354 360 6 3 6 3 1 357 353 350 351 344 340 339 331 337 318 282 255 208 160 160 125 101 90 64 67 82 97 115
149 200 322 334 58 78 136 350 330 286 72 95 72 45 41 29 44 74 79 119 126 124 121 115 115 100 92 87 77 54 48 50 45 41 38 30 27 20 15 13 17 359 358 355 353 355 355 351 353 341 350 353 343 342 345 345 356 354 360 3 8 7 6 6 2 357 353 355 353 348 343 335 355 354 343 9 29 37 66 73 85 81 70 60 44 69 92
149 147 23 63 101 191 341 44 64 88 102 89 85 70 67 69 80 98 101 110 114 114 108 110 106 100 91 76 68 52 36 44 57 53 37 29 23 21 8 9 7 356 355 357 359 1 356 352 349 353 351 351 342 351 353 356 357 359 359 1 7 8 8 6 5 2 359 358 360 357 358 358 15 21 25 27 24 13 17 35 59 76 82 75 52 44 51
71 56 25 130 236 168 125 108 85 87 80 86 90 64 48 63 75 90 103 111 115 117 113 109 110 107 101 76 55 41 35 27 24 44 34 19 21 16 5 2 352 349 355 357 359 353 344 360 353 357 349 341 354 348 347 360 356 1 1 5 5 5 8 7 6 4 1 0 2 4 5 14 23 26 25 24 24 19 26 27 29 63 68 71 62 48 35
125 112 72 84 134 146 163 175 11 134 162 105 108 119 46 44 126 118 117 118 117 117 119 124 124 121 98 75 46 22 27 21 22 33 35 21 16 8 360 354 346 351 355 2 357 357 0 5 1 352 342 353 357 352 357 356 357 1 6 9 5 3 5 4 5 5 5 4 6 8 10 19 26 30 31 27 28 26 34 26 25 22 46 70 69 60 49
106 133 103 115 164 214 191 130 93 145 143 148 202 96 107 56 100 135 133 134 134 133 136 142 150 155 91 71 53 359 360 11 20 23 28 19 14 9 0 359 4 3 357 351 356 9 3 2 357 345 351 2 6 6 360 356 0 359 7 9 4 3 3 1 3 5 7 10 9 11 12 17 26 34 36 40 39 33 39 32 28 15 358 39 67 65 63
88 74 118 154 176 222 52 157 223 168 155 153 128 68 142 130 67 147 145 142 149 151 156 162 168 163 83 110 127 298 319 340 1 32 18 9 6 5 4 2 356 348 346 342 353 3 4 0 347 352 354 4 19 12 4 359 1 2 3 1 2 2 359 359 3 7 9 11 13 14 17 14 10 26 43 49 51 48 43 37 30 10 7 353 59 68 64
79 128 96 165 190 175 213 240 270 270 147 126 122 352 221 164 224 186 154 155 157 163 152 135 107 114 126 158 174 221 256 296 5 34 15 3 360 359 358 4 356 341 349 1 1 1 1 349 344 354 352 8 17 14 5 3 5 1 356 349 349 358 3 3 3 9 13 14 16 17 17 16 12 11 17 49 52 58 55 50 43 31 16 357 7 70 70
90 83 80 33 341 331 6 223 300 300 209 181 117 194 169 161 162 51 151 158 157 150 135 128 99 321 92 131 148 173 240 70 32 20 17 352 340 353 356 353 356 1 349 352 352 351 349 348 356 352 355 9 13 8 6 7 357 343 334 343 356 2 5 8 8 10 14 17 16 16 17 18 20 23 16 22 52 59 58 53 50 47 37 13 352 36 69
100 137 103 177 215 203 136 260 286 280 113 110 220 133 94 131 131 103 105 120 107 111 98 104 103 111 99 110 115 122 86 79 35 20 3 2 359 354 355 356 10 358 349 350 347 347 348 354 357 357 354 7 10 7 9 1 341 326 335 354 358 8 13 12 11 11 14 15 19 17 17 18 25 30 23 25 24 39 60 64 59 46 38 38 359 8 57
43 27 87 46 216 243 56 307 338 7 139 224 120 119 85 108 121 115 88 105 117 113 101 109 120 119 115 121 121 94 62 49 22 6 0 359 351 344 347 345 349 357 346 343 335 331 338 354 1 1 2 5 8 9 9 344 329 332 339 353 4 14 18 16 11 13 14 18 20 18 16 16 29 36 29 25 26 26 28 48 67 63 44 31 2 9 52
138 125 145 195 298 316 295 268 162 221 84 129 138 127 122 119 123 120 115 108 129 125 126 129 123 123 119 98 96 82 59 39 6 0 354 350 347 340 333 330 334 344 339 332 328 334 352 357 360 6 14 7 6 10 356 332 334 342 349 351 6 20 22 17 11 12 14 17 22 22 19 14 25 33 29 28 35 29 31 33 33 52 51 42 14 23 51
140 183 191 158 88 44 22 99 98 104 106 113 124 112 126 137 123 130 116 126 129 128 129 130 132 130 135 128 110 104 44 33 1 354 337 324 323 323 323 319 333 344 343 333 341 348 355 359 357 4 19 18 8 2 336 338 346 347 346 356 16 14 16 20 18 7 18 20 17 18 20 22 25 17 17 21 35 30 34 36 42 44 35 38 45 29 51
96 62 67 102 79 74 81 75 94 112 108 100 114 125 120 107 120 123 125 125 126 123 124 122 112 114 127 114 87 72 51 14 346 341 339 340 338 336 340 348 351 345 347 356 2 355 346 359 353 357 359 25 15 332 325 349 347 349 2 13 16 9 10 19 18 20 25 18 18 18 16 21 28 25 20 13 31 35 36 36 35 43 39 35 34 37 45
73 64 66 83 95 96 96 92 78 72 86 104 111 101 100 109 109 108 104 112 112 113 110 112 120 119 120 106 95 66 42 16 347 346 334 329 336 340 338 333 345 352 359 360 356 353 349 346 352 346 347 356 357 337 349 346 349 353 20 22 18 13 11 7 15 25 35 20 17 18 18 15 21 25 25 24 25 24 25 31 33 29 31 33 36 38 41
81 127 120 96 92 96 91 88 101 100 90 83 71 87 94 94 88 95 106 103 95 95 102 116 120 121 115 115 111 65 13 342 335 328 333 332 333 335 328 326 357 4 7 357 351 353 351 343 342 337 345 348 341 345 352 357 350 5 32 24 21 14 9 6 13 17 27 27 31 29 24 25 20 13 16 23 34 28 18 6 19 41 36 35 36 36 37
95 100 99 109 96 72 68 71 72 78 111 106 96 95 97 100 100 93 79 85 116 109 127 119 117 109 120 121 130 94 328 338 334 327 316 313 306 313 341 344 4 11 346 346 341 346 345 340 343 343 345 348 343 348 345 355 360 8 17 21 32 21 8 12 13 6 20 27 30 31 31 38 44 34 16 2 12 33 29 21 18 27 65 56 46 44 55
150 174 162 158 133 150 136 120 125 120 108 109 105 99 98 102 107 106 102 74 69 107 122 127 123 129 158 98 91 318 286 284 287 310 317 318 325 328 327 315 359 360 356 343 339 349 345 345 348 351 341 343 341 339 344 360 11 18 2 16 22 17 1 5 355 5 18 23 20 24 29 37 39 44 43 47 36 37 21 24 49 55 68 64 38 12 68
177 156 162 173 73 111 126 143 141 125 121 114 116 118 126 124 126 130 121 108 87 90 78 113 121 140 143 203 155 261 283 272 257 262 278 299 314 327 349 9 351 349 332 344 360 358 344 340 348 348 342 343 347 346 347 348 15 13 10 20 10 4 7 5 355 341 354 26 21 23 16 18 35 51 39 32 39 45 52 49 48 44 46 48 47 49 79
74 137 156 135 140 136 152 151 144 134 132 122 117 126 132 144 145 139 122 125 141 156 175 227 165 151 182 207 163 232 286 293 298 299 276 249 242 263 308 20 326 327 346 351 348 327 323 332 337 345 343 343 347 345 346 349 351 29 28 37 15 349 345 351 1 360 341 359 22 34 25 16 15 31 49 64 36 23 39 54 47 45 39 34 31 30 32
147 150 132 116 102 96 101 124 119 122 127 136 138 150 148 125 91 98 111 87 78 126 146 139 20 157 153 222 190 237 259 276 276 265 265 256 170 142 338 354 345 331 322 301 293 304 323 339 342 343 342 335 342 348 350 350 355 7 30 29 22 355 347 341 3 11 4 1 2 41 47 43 26 9 25 46 64 31 359 31 65 58 44 33 29 31 36
93 102 100 92 88 92 107 92 85 107 122 114 96 83 91 105 117 111 115 126 120 135 139 177 183 233 177 191 208 219 245 273 291 322 218 142 13 358 357 344 314 309 309 312 321 349 349 346 341 343 347 335 339 335 342 345 357 349 21 49 33 8 345 333 343 9 6 2 358 352 83 69 62 49 20 25 48 53 20 349 358 26 38 33 25 23 32
94 108 109 92 84 91 121 140 168 178 112 61 98 105 108 110 118 127 146 154 187 180 188 200 196 193 184 210 206 208 211 282 312 320 321 324 259 233 261 325 325 327 329 335 357 354 343 343 357 359 347 335 329 325 335 355 347 351 360 31 30 16 356 352 351 355 357 6 4 12 84 89 83 80 53 16 33 40 68 56 0 11 4 8 21 33 35
102 104 110 133 149 166 177 140 93 112 112 114 102 104 124 113 104 112 95 260 293 270 258 217 189 190 226 251 189 244 116 183 198 239 304 256 242 258 326 338 335 345 342 345 349 342 349 355 4 355 337 326 333 329 331 354 4 17 2 25 30 22 1 360 356 358 8 15 14 18 22 52 119 126 207 51 43 40 8 25 46 21 17 23 19 23 41
134 136 99 91 108 106 104 107 100 107 111 113 106 102 110 111 129 167 223 234 235 353 311 293 226 220 217 228 174 182 185 185 191 230 234 244 260 318 344 347 330 331 343 351 354 354 351 6 2 349 329 324 331 330 334 351 16 38 23 360 52 36 6 341 341 345 355 29 30 23 34 29 4 3 26 18 15 13 17 24 23 16 16 353 4 14 28
148 97 92 110 116 115 102 102 135 140 143 146 122 115 125 128 342 274 276 278 260 250 256 263 248 235 204 175 189 172 174 187 205 219 240 266 292 349 11 344 354 8 6 7 339 335 342 356 343 332 314 326 328 326 334 7 14 17 77 342 79 80 351 312 314 345 39 45 43 53 35 27 26 21 10 22 25 27 36 38 38 36 16 6 13 33 28
115 99 113 109 111 126 146 157 143 150 144 142 143 149 190 167 196 235 253 260 285 254 258 250 247 219 203 212 197 186 194 201 204 277 272 279 293 2 20 51 44 327 305 292 301 312 328 329 311 302 307 324 327 327 334 12 20 320 55 4 311 354 6 343 322 318 276 150 86 73 47 35 22 26 27 21 12 17 18 20 32 34 19 16 22 13 352
101 95 101 111 129 129 123 119 134 159 166 161 148 187 199 187 202 222 236 233 233 228 236 188 189 204 215 202 169 169 164 125 181 281 300 310 301 315 314 225 214 244 262 274 282 291 307 327 318 305 317 332 336 338 329 336 4 81 120 278 308 356 357 358 359 347 324 62 94 91 91 90 36 39 34 40 48 36 17 29 25 16 15 14 353 289 284
105 95 89 91 83 112 176 210 170 196 169 179 201 209 203 205 211 222 223 210 151 159 166 209 216 199 175 167 150 139 132 127 104 324 317 301 294 297 317 274 244 256 271 267 266 273 255 248 271 296 323 335 342 346 354 350 349 134 278 329 318 3 353 344 337 349 336 348 67 78 104 93 101 78 68 79 88 77 53 52 44 25 6 353 293 306 343
159 177 181 180 162 171 189 212 209 189 203 214 220 205 196 201 206 220 194 155 130 180 202 210 193 161 149 150 137 129 127 116 278 276 267 270 278 294 308 294 275 267 266 278 288 271 232 233 245 283 318 340 339 348 0 26 21 20 7 339 339 3 347 332 332 335 5 311 57 67 96 93 77 93 101 110 103 127 102 73 60 26 24 318 339 356 5
173 190 176 179 179 180 180 178 178 182 174 172 178 180 200 194 188 192 170 161 186 208 180 125 139 142 132 127 136 142 156 190 217 229 253 259 266 285 308 320 322 332 332 318 299 281 241 234 243 275 324 343 343 337 347 25 26 9 360 6 1 359 341 338 343 339 352 310 145 99 84 81 90 100 136 139 141 130 138 189 97 59 205 311 5 347 358
153 134 136 147 178 182 181 177 175 174 176 178 179 175 180 186 169 143 190 216 200 119 129 133 133 126 132 140 155 185 209 227 234 242 261 265 267 279 306 333 349 342 340 321 298 265 275 265 271 301 333 355 347 333 346 8 35 27 4 14 18 346 344 338 345 359 17 21 16 105 126 141 139 149 149 126 127 141 161 87 95 280 8 9 306 355 335
188 166 169 171 176 176 173 172 167 166 179 176 168 166 161 163 185 207 208 162 156 160 151 137 119 142 194 208 204 217 236 227 225 228 241 263 279 296 318 327 316 303 334 324 278 313 321 315 316 347 2 9 338 327 335 12 27 28 17 8 9 351 345 346 356 31 17 32 97 60 82 111 122 152 103 131 152 192 135 174 211 122 125 299 334 327 304
183 181 173 163 171 171 180 180 170 149 130 128 183 185 172 179 185 191 211 186 179 171 164 168 179 186 169 120 189 231 250 245 237 244 248 252 254 285 301 280 285 227 272 260 244 308 323 341 334 349 350 343 322 313 320 11 41 51 38 0 354 345 349 345 338 345 360 20 170 121 133 153 207 244 173 137 155 179 200 236 94 191 213 218 216 291 310
109 90 93 127 144 148 129 118 139 149 159 165 178 175 195 169 176 171 189 198 181 153 158 169 122 121 150 183 237 260 260 249 239 236 243 237 210 204 254 248 239 216 224 227 240 279 300 318 325 316 301 287 297 312 328 355 26 53 26 5 5 355 338 331 328 310 306 288 212 199 188 198 204 229 252 202 157 174 200 200 197 215 212 200 187 216 253
154 154 161 147 138 146 137 150 168 178 198 174 151 168 179 159 183 185 192 188 191 171 159 142 149 186 219 225 233 253 252 246 220 209 228 200 162 240 301 292 261 247 246 254 257 262 273 283 283 280 272 267 269 306 351 7 2 8 30 22 7 348 330 319 315 312 306 292 278 263 240 219 226 227 229 229 180 172 178 196 218 236 240 215 233 222 251
158 151 158 141 145 144 145 148 172 189 180 175 176 162 163 168 163 157 188 213 201 164 168 167 174 210 216 214 214 227 248 248 204 198 163 121 163 203 237 273 278 275 250 212 208 225 239 244 237 273 283 285 61 45 333 331 3 2 353 5 5 352 334 325 316 305 301 290 260 250 240 231 223 230 213 216 233 205 188 199 219 231 208 201 218 196 227
157 141 134 137 144 158 159 145 129 130 189 204 187 157 162 157 157 187 200 171 168 172 178 200 202 204 211 222 232 273 287 267 211 186 181 192 223 203 210 269 262 274 298 254 217 212 239 270 256 254 278 317 49 170 197 211 198 25 350 344 336 343 329 314 304 298 298 285 263 250 249 226 215 214 221 223 233 231 201 198 208 235 225 198 228 229 220
146 149 153 155 155 155 148 155 166 170 170 191 184 170 167 171 183 161 121 147 159 165 200 216 221 233 224 201 196 240 258 285 249 223 252 258 242 205 206 242 274 283 288 276 234 224 263 273 293 291 306 319 303 170 156 177 171 198 292 316 320 330 329 316 304 299 299 296 286 260 232 220 211 208 213 217 222 266 229 214 213 224 219 211 223 234 222
159 152 151 152 164 170 158 154 145 137 155 201 203 180 167 174 183 183 179 171 184 197 195 233 233 230 218 188 179 228 265 260 249 211 224 313 324 278 221 240 263 279 288 277 266 261 271 271 273 300 325 313 270 230 204 193 198 219 250 284 298 315 326 323 317 314 307 287 263 255 242 223 210 210 209 200 202 228 222 216 224 219 221 224 228 232 232
161 162 163 164 155 145 148 145 156 178 191 166 155 168 182 187 200 199 175 181 199 214 202 205 210 219 207 180 193 213 223 219 197 145 166 263 294 293 276 222 253 267 260 241 234 238 256 259 294 352 340 317 294 243 188 190 206 228 255 275 286 307 319 312 304 304 302 288 261 242 234 239 229 216 205 209 215 225 230 223 225 212 208 223 226 220 217
163 157 141 130 147 174 183 175 164 128 126 139 171 212 219 208 206 203 198 191 200 209 199 192 187 205 193 203 221 247 279 258 227 205 212 186 203 238 224 238 264 269 254 233 227 230 245 239 318 337 328 309 278 242 186 188 201 264 293 302 315 329 329 318 312 307 303 298 284 261 242 238 231 227 210 212 219 233 235 215 223 227 217 217 212 211 220
147 148 163 164 168 157 126 113 112 106 102 123 168 218 236 214 205 202 216 222 211 213 206 199 216 229 202 181 163 174 265 327 315 247 225 246 259 272 272 277 275 268 243 222 218 223 229 237 284 273 284 275 262 264 215 130 36 335 321 309 304 304 300 299 298 301 309 313 313 305 297 284 261 245 228 233 235 236 233 223 229 225 217 212 221 221 213
153 161 169 162 149 138 120 121 122 142 161 181 196 214 211 167 152 139 120 175 226 277 276 259 240 255 223 207 220 188 159 146 273 301 257 225 246 251 276 272 261 242 242 270 268 266 240 259 269 274 272 274 276 261 251 220 160 309 325 313 304 295 291 298 308 312 315 312 305 312 301 291 275 258 249 245 251 238 222 220 233 232 217 210 213 205 209
166 160 158 143 136 143 151 156 155 165 199 203 185 195 164 146 119 116 122 133 157 210 208 240 249 295 225 205 204 215 215 193 167 219 245 196 273 280 269 269 275 256 242 247 272 295 325 315 288 276 274 272 266 246 221 228 217 222 254 273 280 282 274 265 267 291 306 303 303 294 293 299 292 263 265 261 263 257 241 237 239 231 217 214 216 206 205
130 114 128 148 156 158 162 162 179 197 188 165 181 177 163 131 137 218 220 203 200 208 220 252 252 254 258 293 272 245 212 218 258 271 264 250 251 251 254 251 253 226 202 216 258 282 288 298 306 296 281 268 257 233 224 229 235 226 232 251 269 278 264 255 266 279 296 300 306 316 326 331 325 311 299 290 284 278 257 250 244 243 243 239 224 220 209
146 155 166 175 181 180 176 179 188 183 175 180 172 163 153 160 180 196 202 189 138 164 221 253 273 271 279 276 280 294 268 266 263 246 245 266 266 295 315 248 213 203 198 197 224 254 268 267 267 267 264 252 246 238 228 228 237 243 245 253 264 275 288 293 314 311 288 270 282 300 318 328 335 327 303 290 288 286 279 265 256 255 248 244 240 231 220
173 176 177 176 177 177 188 198 172 166 163 159 158 162 178 179 176 194 210 198 181 191 192 186 249 266 226 232 253 270 289 252 243 265 253 258 264 274 347 21 66 211 220 239 263 275 275 268 263 257 254 257 250 242 243 246 250 249 247 244 249 244 225 221 210 215 238 239 214 334 336 351 351 349 349 344 337 327 317 297 275 262 239 236 260 281 289